EST,Max TemperatureF,Mean TemperatureF,Min TemperatureF,Max Dew PointF,MeanDew PointF,Min DewpointF,Max Humidity, Mean Humidity, Min Humidity, Max Sea Level PressureIn, Mean Sea Level PressureIn, Min Sea Level PressureIn, Max VisibilityMiles, Mean VisibilityMiles, Min VisibilityMiles, Max Wind SpeedMPH, Mean Wind SpeedMPH, Max Gust SpeedMPH,PrecipitationIn, CloudCover, Events, WindDirDegrees
2013-12-1,68,58,48,54,50,45,100,83,60,30.28,30.17,30.03,10,9,2,8,3,,0.00,3,,42
2013-12-2,68,57,46,54,51,46,100,86,52,30.02,29.93,29.85,10,8,0,8,1,,0.00,2,,317
2013-12-3,69,56,44,59,54,45,100,87,60,30.00,29.95,29.90,10,7,0,10,2,,0.00,5,,163
2013-12-4,78,66,53,64,60,54,100,86,54,30.13,30.05,29.98,10,7,0,9,2,,0.00,2,,208
2013-12-5,82,68,55,68,62,55,100,82,54,30.18,30.13,30.08,10,8,0,12,3,17,0.00,2,,173
2013-12-6,80,71,62,70,66,63,100,83,65,30.17,30.14,30.11,10,9,2,10,6,,0.00,1,,178
2013-12-7,78,69,60,70,66,59,100,91,69,30.27,30.20,30.15,10,7,0,14,5,18,0.00,5,,232
2013-12-8,59,57,55,59,56,55,100,97,88,30.30,30.25,30.20,10,3,1,15,8,16,0.00,8,,47
2013-12-9,78,68,57,68,63,55,100,91,69,30.21,30.15,30.09,10,6,0,10,3,,0.00,5,,142
2013-12-10,77,64,50,70,60,39,100,81,55,30.30,30.13,30.04,10,10,4,15,7,25,0.00,4,,258
2013-12-11,62,53,44,54,46,37,93,76,62,30.37,30.32,30.29,10,10,10,18,7,24,0.00,5,,18
2013-12-12,60,48,35,45,36,27,100,65,29,30.40,30.34,30.29,10,10,2,9,2,,0.00,1,,348
2013-12-13,62,48,33,52,43,34,100,81,51,30.39,30.30,30.18,10,9,1,14,3,18,0.00,0,,40
2013-12-14,73,62,50,68,61,50,100,92,78,30.18,30.02,29.88,10,9,2,16,4,24,0.00,6,,177
2013-12-15,68,56,44,68,53,41,100,89,72,30.19,30.00,29.85,10,10,3,12,5,23,0.00,5,,270
2013-12-16,59,46,33,45,38,34,100,81,45,30.27,30.23,30.18,10,9,0,6,2,,0.00,0,,297
2013-12-17,64,50,35,45,38,34,100,72,32,30.30,30.23,30.17,10,8,0,10,2,9,0.00,0,,253
2013-12-18,60,48,35,39,36,30,100,67,34,30.34,30.28,30.19,10,10,7,8,5,,0.00,0,,286
2013-12-19,68,50,32,54,45,32,100,87,56,30.35,30.30,30.24,10,8,0,10,2,,0.00,1,,65
2013-12-20,75,60,44,61,53,45,100,85,53,30.26,30.21,30.17,10,7,0,8,1,,0.00,1,,143
2013-12-21,78,64,51,68,62,52,100,88,65,30.17,30.12,30.06,10,8,0,18,4,26,0.00,2,,164
2013-12-22,80,74,68,70,68,66,100,87,65,30.14,30.11,30.08,10,10,10,16,8,26,0.00,5,,177
2013-12-23,80,68,57,70,65,55,100,87,61,30.17,30.12,30.07,10,10,2,17,6,22,0.00,5,,223
2013-12-24,59,50,41,55,40,30,100,71,36,30.35,30.27,30.15,10,10,5,13,6,20,0.00,3,,315
2013-12-25,51,44,37,45,40,32,87,79,70,30.40,30.34,30.31,10,10,10,16,7,24,0.00,6,,17
2013-12-26,51,48,44,45,42,39,87,81,71,30.34,30.28,30.23,10,10,10,8,3,,0.00,7,,350
2013-12-27,55,52,50,46,44,39,87,73,54,30.38,30.34,30.29,10,10,10,12,5,16,0.00,7,,24
2013-12-28,62,54,46,59,51,41,100,87,71,30.35,30.22,30.02,10,8,1,15,7,20,0.00,7,,41
2013-12-29,73,63,53,68,61,50,100,85,53,30.05,29.95,29.89,10,10,2,21,9,29,0.00,5,Thunderstorm,233
2013-12-30,64,54,44,50,47,45,100,79,49,30.22,30.14,30.04,10,10,10,9,4,,0.00,0,,290
2013-12-31,55,52,50,50,48,45,100,83,76,30.37,30.30,30.21,10,10,10,8,3,,0.00,2,,304